#timestamp,LO_Frequency,Hit,StdDev 
1542744015.8,286046993.0,N
1542744035.6,286046988.7,Y
1542744055.5,286046993.8,P
1542744075.3,286046992.3,P
1542744095.2,286046992.6,P
1542744115.9,286046993.6,Y
1542744135.7,286046999.9,P
1542744155.6,286047000.4,N
1542744175.4,286047000.8,N
1542744195.2,286047000.6,N
1542744215.1,286046998.1,N
1542744246.0,286046998.2,E
1542744255.0,286046998.9,N
1542744255.9,286046998.9,P
1542744275.8,286046998.3,P
1542744295.6,286047002.7,Y
1542744315.4,286047001.7,P
1542744335.3,286047000.1,N
1542744355.1,286046999.9,N
1542744375.9,286047001.9,N
1542744395.7,286047000.2,N
1542744415.5,286046999.7,N
1542744435.4,286047000.1,N
1542744455.2,286046999.9,N
1542744475.0,286046999.7,N
1542744475.9,286046999.7,N
1542744495.8,286047000.4,N
1542744515.6,286046998.9,N
1542744535.5,286046998.6,N
1542744555.3,286047000.8,N
1542744575.1,286047002.0,N
1542744595.9,286047003.0,N
1542744615.7,286047005.7,Y
1542744635.5,286047005.6,P
1542744655.4,286047003.7,N
1542744675.2,286047003.4,N
1542744695.1,286047001.7,N
1542744696.0,286047001.7,N
1542744715.8,286047002.5,N
1542744735.6,286047004.4,N
1542744755.5,286047000.0,N
1542744775.3,286047002.6,N
1542744795.1,286047000.5,N
1542744815.9,286047001.0,N
1542744835.7,286047000.8,N
1542744855.6,286047001.2,N
1542744875.4,286046997.4,N
1542744895.2,286046996.5,N
1542744915.1,286046999.6,N
1542744916.0,286046999.6,N
1542744935.8,286046998.7,N
1542744955.6,286046998.7,N
1542744975.5,286046996.7,N
1542744995.3,286046998.7,N
1542745015.2,286046999.1,N
1542745035.9,286046995.2,N
1542745055.7,286046993.8,N
1542745075.6,286046995.4,N
1542745095.4,286046995.6,N
1542745115.2,286046994.6,N
1542745135.1,286046992.1,N
1542745136.0,286046992.1,N
1542745155.8,286046994.3,N
1542745175.7,286046993.8,N
1542745195.5,286046993.8,N
1542745215.3,286046993.4,N
1542745235.2,286046997.8,N
1542745255.0,286046997.7,N
1542745255.9,286046997.7,N
1542745275.7,286046997.6,N
1542745295.6,286046997.7,N
1542745315.4,286046996.6,N
1542745335.3,286046997.1,N
1542745355.1,286046997.2,N
1542745356.0,286046997.2,N
1542745375.8,286046999.0,N
1542745395.7,286046997.3,N
1542745415.5,286046996.7,N
1542745435.3,286046998.0,N
1542745455.2,286046998.3,N
1542745475.0,286046999.2,N
1542745475.9,286046999.2,N
1542745495.8,286046999.4,N
1542745515.6,286046999.6,N
1542745535.4,286046996.6,N
1542745555.3,286046996.4,N
1542745575.1,286046990.6,Y
1542745595.8,286046992.7,P
1542745615.7,286046992.8,P
1542745635.5,286046991.3,P
1542745655.4,286046992.9,Y
1542745675.2,286046998.9,P
1542745695.0,286047000.8,N
1542745695.9,286047000.8,N
1542745715.8,286046997.8,N
1542745735.6,286046996.4,N
1542745755.5,286046992.0,Y
1542745775.3,286046994.6,P
1542745795.1,286046993.7,P
1542745815.9,286046994.2,P
1542745835.7,286046994.3,Y
1542745855.6,286046998.7,P
1542745875.4,286046999.5,N
1542745895.2,286047011.9,P
1542745915.1,286046993.4,N
1542745916.0,286046993.4,N
1542745935.8,286046994.3,N
1542745955.6,286046991.0,N
1542745975.5,286046991.1,N
1542745995.3,286046991.4,N
1542746015.2,286046991.1,N
1542746035.9,286046987.2,N
1542746055.7,286046987.6,N
1542746075.6,286046985.7,N
1542746095.4,286046988.4,N
1542746115.2,286046987.9,N
1542746135.1,286046987.0,N
1542746136.0,286046987.0,N
1542746155.8,286046986.5,N
1542746175.7,286046986.5,N
1542746195.5,286046985.5,N
1542746215.3,286046984.3,N
1542746235.2,286046985.6,N
1542746255.0,286046987.7,N
1542746255.9,286046987.7,N
1542746275.8,286046989.6,N
1542746295.6,286046990.4,N
1542746315.4,286046991.5,N
1542746335.3,286046990.8,N
1542746355.1,286046991.5,N
1542746375.8,286046988.6,N
1542746395.7,286046989.9,N
1542746415.5,286046987.1,N
1542746435.4,286046989.3,N
1542746455.2,286046986.3,Y
1542746475.0,286046999.4,P
1542746475.9,286046999.4,N
1542746495.8,286046996.9,N
1542746515.6,286046998.3,N
1542746535.5,286047002.7,N
1542746555.3,286047000.9,N
1542746575.1,286046995.3,N
1542746595.9,286046995.6,N
1542746615.7,286046993.4,N
1542746635.5,286046994.2,N
1542746655.4,286046993.3,N
1542746675.2,286046996.2,N
1542746695.1,286046992.3,N
1542746696.0,286046992.3,N
1542746715.8,286046994.5,N
1542746735.6,286046994.6,N
1542746755.5,286046991.2,N
1542746775.3,286046994.7,N
1542746795.1,286046992.7,N
1542746815.9,286046990.6,N
1542746835.7,286046991.4,N
1542746855.6,286046990.7,N
1542746875.4,286046990.2,N
1542746895.2,286046990.9,N
1542746915.1,286046989.7,N
1542746916.0,286046989.7,N
1542746935.8,286046988.6,Y
1542746955.6,286046993.9,P
1542746975.5,286046996.3,P
1542746995.3,286046994.3,P
1542747015.2,286046993.9,Y
1542747035.9,286046999.2,P
1542747055.7,286046998.2,N
1542747075.6,286046998.2,N
1542747095.4,286047000.5,N
1542747115.2,286046998.3,N
1542747135.1,286046999.2,N
1542747136.0,286046999.2,N
1542747155.8,286046999.1,N
1542747175.7,286047000.4,N
1542747195.5,286047000.8,N
1542747215.3,286047000.0,N
1542747235.2,286047001.0,N
1542747255.9,286047000.4,N
1542747275.7,286047000.7,N
1542747295.6,286046999.3,N
1542747315.4,286046996.0,N
1542747335.3,286046999.5,N
1542747355.1,286046998.1,N
1542747356.0,286046998.1,N
1542747375.8,286047002.8,N
1542747395.7,286047004.4,N
1542747415.5,286047003.1,N
1542747435.3,286047003.5,N
1542747455.2,286047002.9,N
1542747475.0,286047008.9,Y
1542747475.9,286047008.9,P
1542747495.8,286047010.7,N
1542747515.6,286047009.1,N
1542747535.4,286047008.7,N
1542747555.3,286047010.7,N
1542747575.1,286047010.2,N
1542747595.8,286047010.2,N
